TimePDT,TemperatureF,Dew PointF,Humidity,Sea Level PressureIn,VisibilityMPH,Wind Direction,Wind SpeedMPH,Gust SpeedMPH,PrecipitationIn,Events,Conditions,WindDirDegrees,DateUTC
12:53 AM,42.1,32.0,67,30.10,10.0,Calm,Calm,-,N/A,,Scattered Clouds,0,2013-03-25 07:53:00
1:53 AM,43.0,35.1,74,30.09,10.0,WNW,3.5,-,N/A,,Mostly Cloudy,300,2013-03-25 08:53:00
2:53 AM,42.1,35.1,76,30.08,10.0,Calm,Calm,-,N/A,,Mostly Cloudy,0,2013-03-25 09:53:00
3:53 AM,42.1,35.1,76,30.07,10.0,Calm,Calm,-,N/A,,Overcast,0,2013-03-25 10:53:00
4:53 AM,41.0,35.1,79,30.06,10.0,Calm,Calm,-,N/A,,Overcast,0,2013-03-25 11:53:00
5:53 AM,41.0,36.0,82,30.06,10.0,West,3.5,-,N/A,,Overcast,280,2013-03-25 12:53:00
6:53 AM,39.9,35.1,83,30.07,10.0,Calm,Calm,-,N/A,,Overcast,0,2013-03-25 13:53:00
7:53 AM,41.0,35.1,79,30.06,10.0,Calm,Calm,-,N/A,,Mostly Cloudy,0,2013-03-25 14:53:00
8:53 AM,44.1,36.0,73,30.05,10.0,Calm,Calm,-,N/A,,Overcast,0,2013-03-25 15:53:00
9:53 AM,48.0,30.0,50,30.04,10.0,West,3.5,-,N/A,,Overcast,270,2013-03-25 16:53:00
10:53 AM,51.1,32.0,48,30.02,10.0,NW,4.6,-,N/A,,Mostly Cloudy,310,2013-03-25 17:53:00
11:53 AM,55.0,34.0,45,30.00,10.0,NW,6.9,-,N/A,,Mostly Cloudy,310,2013-03-25 18:53:00
12:53 PM,57.9,30.9,36,29.98,10.0,NW,5.8,-,N/A,,Mostly Cloudy,310,2013-03-25 19:53:00
1:53 PM,61.0,30.0,31,29.96,10.0,Variable,3.5,-,N/A,,Mostly Cloudy,0,2013-03-25 20:53:00
2:53 PM,61.0,33.1,35,29.94,10.0,Variable,3.5,-,N/A,,Mostly Cloudy,0,2013-03-25 21:53:00
3:53 PM,61.0,33.1,35,29.93,10.0,Calm,Calm,-,N/A,,Mostly Cloudy,0,2013-03-25 22:53:00
4:53 PM,57.9,37.0,46,29.93,10.0,East,8.1,-,0.00,Rain,Light Rain,80,2013-03-25 23:53:00
5:53 PM,57.0,39.0,51,29.92,10.0,Calm,Calm,-,0.01,,Overcast,0,2013-03-26 00:53:00
6:53 PM,55.9,39.0,53,29.93,10.0,ESE,4.6,-,N/A,,Overcast,110,2013-03-26 01:53:00
7:53 PM,55.0,37.9,53,29.94,10.0,East,4.6,-,N/A,,Overcast,80,2013-03-26 02:53:00
8:53 PM,53.1,39.9,61,29.94,10.0,Calm,Calm,-,N/A,,Overcast,0,2013-03-26 03:53:00
9:53 PM,53.1,41.0,64,29.96,10.0,ESE,3.5,-,N/A,,Overcast,120,2013-03-26 04:53:00
10:53 PM,51.1,41.0,68,29.97,10.0,Calm,Calm,-,N/A,,Mostly Cloudy,0,2013-03-26 05:53:00
11:53 PM,50.0,42.8,76,29.98,10.0,West,4.6,-,N/A,,Scattered Clouds,260,2013-03-26 06:53:00